Regional Weather Roundup
Issued by NWS

Home | Current Version | Previous Version | Text Only | Print | Product List | Glossary Off
Versions: 1 2 3 4 5 6 7 8 9 10 11 12 13 14 15 16 17 18 19 20 21 22 23 24 25 26 27 28

000
ASUS45 KBOU 290807
RWRCO

WEATHER ROUNDUP FOR COLORADO
NATIONAL WEATHER SERVICE DENVER/BOULDER CO
200 AM MDT MON MAY 29 2017

NOTE: "FAIR" INDICATES FEW OR NO CLOUDS BELOW 12000 FEET WITH NO
SIGNIFICANT WEATHER AND/OR OBSTRUCTIONS TO VISIBILITY.

COZ001>005-013-030-031-290900-
...NORTHWEST COLORADO...

CITY           SKY/WX    TMP DP  RH WIND       PRES   REMARKS
CRAIG          FAIR      38  33  82 CALM      30.26S
HAYDEN         FAIR      45  32  61 E9        30.27S
MEEKER         FAIR      39  31  72 NE6       30.27S
RABBIT EARS PA FAIR      36  27  69 E6        30.44S
STEAMBOAT SPGS FAIR      40  32  75 CALM      30.30S
WALDEN           N/A     37  30  75 W5        30.37S
$$

COZ006>008-011-290900-
...WEST CENTRAL VALLEYS...

CITY           SKY/WX    TMP DP  RH WIND       PRES   REMARKS
GRAND JUNCTION FAIR      59  24  26 E3        30.14F
MONTROSE       FAIR      51  23  33 SE9       30.23S
EAGLE          FAIR      43  30  60 CALM      30.31S
RIFLE          FAIR      51  30  44 SE9       30.23R
DELTA          FAIR      53  28  37 CALM      30.20R
NUCLA          FAIR      50  21  32 E9        30.25S
$$

COZ017>023-064>068-290900-
...SOUTHWEST COLORADO...

CITY           SKY/WX    TMP DP  RH WIND       PRES   REMARKS
DURANGO        FAIR      41  22  46 CALM      30.22S
CORTEZ         FAIR      39  29  67 NE5       30.20F
PAGOSA SPRINGS FAIR      38  18  45 CALM      30.29S
TELLURIDE      FAIR      41  19  41 SE7       30.39S
WOLF CREEK PAS FAIR      36  12  38 NW3       30.54F
$$

COZ009-010-012-014-032>034-037-058>063-290900-
...CENTRAL COLORADO...

CITY           SKY/WX    TMP DP  RH WIND       PRES   REMARKS
ASPEN          FAIR      39  28  64 SW9       30.32F
BUENA VISTA    FAIR      40  27  59 NW6       30.36S
COPPER MTN     FAIR      36  23  60 CALM      30.51S
BERTHOUD PASS  FAIR      28  19  69 SW3       30.52S
COTTONWOOD PAS FAIR      45  21  39 SW6       30.43S
GUNNISON       FAIR      38  24  57 CALM      30.34S
KREMMLING      FAIR      43  36  75 W3        30.34S
LEADVILLE      FAIR      30  20  66 CALM      30.41F
MONARCH PASS   FAIR      32  27  80 NE10      30.60F WCI  24
SALIDA         FAIR      46  29  52 CALM      30.41S
SUNLIGHT       FAIR      36  23  60 E3        30.49S
WILKERSON PASS FAIR      34  25  69 SE5       30.51F WCI  30
$$

COZ069>075-290900-
...SAN LUIS VALLEY/SANGRE DE CRISTO MOUNTAINS...

CITY           SKY/WX    TMP DP  RH WIND       PRES   REMARKS
ALAMOSA        FAIR      40  35  83 S6        30.28S
DEL NORTE      FAIR      44  21  40 W12       30.32F
LA VETA PASS   FAIR      37  28  70 CALM      30.53F
SAGUACHE       FAIR      46  21  36 NW13      30.31F
$$

COZ035-036-038>040-290900-
...NORTHERN COLORADO FRONT RANGE...

CITY           SKY/WX    TMP DP  RH WIND       PRES   REMARKS
DENVER INTL AP CLOUDY    50  45  83 W3        30.30R
DMNS CITY PARK   N/A     53  41  63 E7G14     30.28F
AURORA         MOCLDY    49  43  79 CALM      30.31R
FRONT RANGE AP MOCLDY    50  46  87 CALM      30.30F
ERIE MUNI ARPT MOCLDY    51  47  86 E7        30.29F
BOULDER MUN AP CLOUDY    52  46  82 CALM      30.30R
CENTENNIAL     MOCLDY    51  42  71 SE3       30.31R
BROOMFIELD     MOCLDY    52  43  71 NE9       30.30F
FORT COLLINS   FAIR      49  44  83 S5        30.28S
LONGMONT       FAIR      51  45  79 CALM      30.30F
$$

COZ041-046-047-076>085-087-088-290900-
...PIKES PEAK/PALMER DIVIDE AND SOUTHERN FOOTHILLS...

CITY           SKY/WX    TMP DP  RH WIND       PRES   REMARKS
COLO. SPRINGS  FAIR      51  37  58 NW6       30.31R
A. F. ACADEMY  FAIR      44  37  76 N7        30.31S
SCHRIEVER AFB  FAIR      47  38  72 NW10      30.30F
CHEYENNE MTN   FAIR      51  32  47 NW10      30.27S
ELLICOTT       FAIR     N/A N/A N/A NE9       30.28S
FALCON         FAIR      46  36  68 N10       30.33F
FORT CARSON    FAIR      48  35  61 N6        30.28S
LIMON          MOCLDY    49  44  83 N9        30.26R
MONUMENT HILL  FAIR      39  36  87 CALM      30.35F
CANON CITY     NOT AVBL
WALSENBURG     FAIR      45  41  87 W6        30.27S
TRINIDAD       FAIR      46  36  68 W9        30.26R
$$

COZ042>045-048>051-090-091-290900-
...NORTHEAST COLORADO...

CITY           SKY/WX    TMP DP  RH WIND       PRES   REMARKS
GREELEY ARPT   FAIR      49  45  86 SW6       30.27R
AKRON          MOCLDY    49  42  77 NW9       30.22F
BURLINGTON     FAIR      51  46  83 W6        30.21R
WRAY           FAIR      46  45  93 W7        30.17S
YUMA           FAIR      46  34  61 W8        30.19F
STERLING       NOT AVBL
HOLYOKE        NOT AVBL
FORT MORGAN    MOCLDY    49  42  76 NW5       30.23S
$$

COZ086-089-092>099-290900-
...SOUTHEAST COLORADO...

CITY           SKY/WX    TMP DP  RH WIND       PRES   REMARKS
PUEBLO         MOCLDY    56  43  61 NE15      30.23R
LA JUNTA       CLOUDY    56  47  71 N8        30.21R
LAMAR          FAIR      48  42  80 CALM      30.17R
SPRINGFIELD      N/A     52  45  77 W3        30.19S
$$




USA.gov is the U.S. government's official web portal to all federal, state and local government web resources and services.